SCO16ST MMUN-EGPH

Flight info

Callsign SCO16ST
Flight time N/A
Altitude 35000
Route CUN3A CUN R506 DUGNI UR506 NUDAL UV106 PODON UG765 MAXIM Y262 TUNSL Q81 KARTR/N0492F360 DCT LAL/N0495F350 DCT ORL DCT CHS/N0487F370 DCT CRE DCT RAPZZ DCT ISO DCT ORF DCT RBV Q22 FOXWD DCT EBONY N633A RIKAL/M084F390 DCT 53N050W 54N040W 55N030W 56N020W DCT PIKIL DCT SOVED/N0488F390 DCT MIMKU DCT DONIB DCT MAC/N0459F250 N562 TRN DCT TLA
Aircraft B77W/H-SDE1E2E3FGHIJ2J3J4J5M1RWXY/LB1D1

Departure

Time 2026-05-06 02:23
Airport Cancún International Airport (MMUN)

Arrival

Time N/A
Airport Edinburgh Airport (EGPH)
Time Latitude Longitude Altitude Speed Heading
2026-05-06 02:07 21.04303 -86.88043 33 ft 0 kts 122°
2026-05-06 02:19 21.04310 -86.88055 32 ft 3 kts 122°
2026-05-06 02:19 21.04320 -86.88071 30 ft 3 kts 129°
2026-05-06 02:19 21.04333 -86.88085 31 ft 3 kts 145°
2026-05-06 02:19 21.04349 -86.88095 31 ft 3 kts 161°
2026-05-06 02:20 21.04351 -86.88096 31 ft 3 kts 166°
2026-05-06 02:20 21.04281 -86.88104 33 ft 17 kts 202°
2026-05-06 02:20 21.04203 -86.88242 33 ft 28 kts 283°
2026-05-06 02:21 21.04329 -86.88465 33 ft 42 kts 304°
2026-05-06 02:21 21.04494 -86.88722 34 ft 44 kts 304°
2026-05-06 02:21 21.04626 -86.88947 33 ft 29 kts 288°
2026-05-06 02:21 21.04530 -86.89062 32 ft 12 kts 169°
2026-05-06 02:22 21.04432 -86.88925 32 ft 50 kts 124°
2026-05-06 02:22 21.04096 -86.88390 34 ft 123 kts 124°
2026-05-06 02:22 21.03495 -86.87433 37 ft 185 kts 124°
2026-05-06 02:22 21.02759 -86.86267 585 ft 189 kts 125°
2026-05-06 02:23 21.01947 -86.85066 926 ft 212 kts 127°
2026-05-06 02:23 21.01090 -86.83736 1638 ft 220 kts 124°
2026-05-06 02:23 21.00229 -86.82352 2449 ft 229 kts 122°
2026-05-06 02:23 20.99375 -86.80873 3280 ft 238 kts 122°
2026-05-06 02:24 20.98473 -86.79352 4038 ft 247 kts 128°
2026-05-06 02:24 20.97129 -86.78184 4683 ft 259 kts 161°
2026-05-06 02:24 20.95311 -86.77985 5398 ft 271 kts 190°
2026-05-06 02:24 20.93544 -86.78740 6215 ft 279 kts 216°
2026-05-06 02:25 20.92206 -86.80257 6977 ft 285 kts 242°
2026-05-06 02:25 20.91617 -86.82271 7707 ft 287 kts 271°
2026-05-06 02:25 20.91986 -86.84344 8434 ft 285 kts 301°
2026-05-06 02:25 20.93250 -86.85938 9133 ft 283 kts 330°
2026-05-06 02:26 20.95082 -86.86628 9756 ft 283 kts 359°
2026-05-06 02:26 20.97060 -86.86490 10036 ft 289 kts
2026-05-06 02:26 20.99054 -86.86215 9992 ft 299 kts
2026-05-06 02:26 21.01102 -86.85710 10016 ft 300 kts 24°
2026-05-06 02:27 21.02748 -86.84405 10103 ft 302 kts 56°
2026-05-06 02:27 21.03515 -86.82300 10471 ft 309 kts 84°
2026-05-06 02:27 21.03657 -86.80014 11013 ft 308 kts 83°
2026-05-06 02:27 21.03973 -86.77739 11458 ft 310 kts 77°
2026-05-06 02:28 21.04430 -86.75480 11947 ft 311 kts 76°
2026-05-06 02:28 21.04922 -86.73203 12461 ft 317 kts 76°
2026-05-06 02:28 21.05414 -86.70880 12968 ft 324 kts 76°
2026-05-06 02:28 21.05902 -86.68502 13489 ft 330 kts 76°
2026-05-06 02:29 21.06385 -86.66084 13987 ft 335 kts 77°
2026-05-06 02:29 21.06869 -86.63623 14460 ft 341 kts 77°
2026-05-06 02:29 21.07358 -86.61114 14924 ft 347 kts 76°
2026-05-06 02:29 21.07854 -86.58563 15413 ft 353 kts 76°
2026-05-06 02:30 21.08359 -86.55970 15892 ft 358 kts 76°
2026-05-06 02:30 21.08870 -86.53344 16381 ft 363 kts 76°
2026-05-06 02:30 21.09390 -86.50677 16874 ft 368 kts 76°
2026-05-06 02:30 21.09914 -86.47982 17385 ft 372 kts 76°
2026-05-06 02:31 21.10443 -86.45261 17891 ft 375 kts 76°
2026-05-06 02:31 21.10975 -86.42516 18394 ft 378 kts 76°
2026-05-06 02:31 21.11511 -86.39753 18837 ft 380 kts 76°
2026-05-06 02:31 21.12050 -86.36973 19285 ft 382 kts 76°
2026-05-06 02:32 21.12591 -86.34185 19739 ft 383 kts 76°
2026-05-06 02:32 21.13133 -86.31386 20184 ft 384 kts 76°
2026-05-06 02:32 21.13676 -86.28583 20648 ft 384 kts 76°
2026-05-06 02:32 21.14216 -86.25790 21099 ft 383 kts 76°
2026-05-06 02:33 21.14755 -86.22997 21570 ft 382 kts 76°
2026-05-06 02:33 21.15111 -86.21153 21869 ft 381 kts 76°
2026-05-06 02:33 21.16350 -86.14724 22976 ft 373 kts 75°
2026-05-06 02:34 21.16870 -86.12018 23446 ft 369 kts 75°
2026-05-06 02:34 21.17385 -86.09332 23722 ft 369 kts 75°
2026-05-06 02:34 21.17905 -86.06624 23784 ft 375 kts 75°
2026-05-06 02:34 21.18436 -86.03855 23794 ft 383 kts 75°
2026-05-06 02:35 21.18974 -86.01040 23915 ft 387 kts 76°
2026-05-06 02:35 21.19510 -85.98218 24205 ft 384 kts 76°
2026-05-06 02:35 21.20041 -85.95421 24533 ft 382 kts 76°
2026-05-06 02:35 21.20570 -85.92645 24790 ft 381 kts 75°
2026-05-06 02:36 21.21101 -85.89856 24935 ft 383 kts 75°
2026-05-06 02:36 21.21639 -85.87036 25001 ft 389 kts 76°
2026-05-06 02:36 21.22181 -85.84183 25076 ft 393 kts 76°
2026-05-06 02:36 21.22725 -85.81312 25247 ft 394 kts 76°
2026-05-06 02:37 21.23269 -85.78436 25504 ft 392 kts 76°
2026-05-06 02:37 21.23804 -85.75582 25755 ft 390 kts 76°
2026-05-06 02:37 21.24334 -85.72722 25921 ft 392 kts 76°
2026-05-06 02:37 21.24866 -85.69850 26001 ft 395 kts 76°
2026-05-06 02:38 21.25396 -85.66987 26052 ft 399 kts 76°
2026-05-06 02:38 21.25957 -85.64065 26130 ft 399 kts 72°
2026-05-06 02:38 21.27053 -85.61374 25936 ft 398 kts 48°
2026-05-06 02:38 21.29063 -85.59301 25523 ft 407 kts 32°
2026-05-06 02:39 21.31399 -85.57595 25569 ft 403 kts 32°
2026-05-06 02:39 21.33607 -85.55801 25927 ft 394 kts 38°
2026-05-06 02:39 21.35603 -85.53823 26212 ft 388 kts 42°
2026-05-06 02:39 21.37490 -85.51768 26492 ft 386 kts 43°
2026-05-06 02:40 21.39367 -85.49709 26674 ft 386 kts 42°
2026-05-06 02:40 21.41272 -85.47674 26750 ft 388 kts 41°
2026-05-06 02:40 21.43231 -85.45652 26764 ft 393 kts 40°
2026-05-06 02:40 21.45235 -85.43639 26816 ft 396 kts 40°
2026-05-06 02:41 21.47262 -85.41638 26983 ft 396 kts 39°
2026-05-06 02:41 21.49294 -85.39651 27211 ft 394 kts 39°
2026-05-06 02:41 21.51318 -85.37679 27418 ft 392 kts 39°
2026-05-06 02:41 21.53342 -85.35710 27542 ft 393 kts 39°
2026-05-06 02:42 21.55380 -85.33725 27568 ft 397 kts 39°
2026-05-06 02:42 21.57436 -85.31721 27580 ft 401 kts 39°
2026-05-06 02:42 21.59507 -85.29698 27675 ft 403 kts 39°
2026-05-06 02:42 21.61575 -85.27674 27849 ft 401 kts 39°
2026-05-06 02:43 21.63632 -85.25658 28064 ft 400 kts 39°
2026-05-06 02:43 21.65685 -85.23644 28197 ft 400 kts 39°
2026-05-06 02:43 21.67748 -85.21620 28226 ft 403 kts 39°
2026-05-06 02:44 21.71916 -85.17533 28305 ft 408 kts 39°
2026-05-06 02:44 21.74010 -85.15476 28443 ft 408 kts 39°
2026-05-06 02:44 21.76105 -85.13418 28613 ft 407 kts 39°
2026-05-06 02:44 21.78192 -85.11367 28749 ft 406 kts 39°
2026-05-06 02:45 21.80277 -85.09316 28816 ft 408 kts 39°
2026-05-06 02:45 21.84496 -85.05168 28836 ft 413 kts 39°
2026-05-06 02:46 21.88744 -85.00987 29083 ft 413 kts 39°
2026-05-06 02:46 21.90857 -84.98904 29211 ft 412 kts 39°
2026-05-06 02:46 21.92971 -84.96820 29293 ft 412 kts 39°
2026-05-06 02:47 21.97225 -84.92626 29321 ft 417 kts 39°
2026-05-06 02:47 22.01517 -84.88392 29468 ft 418 kts 39°
2026-05-06 02:47 22.03659 -84.86276 29619 ft 417 kts 39°
2026-05-06 02:48 22.05796 -84.84163 29734 ft 417 kts 39°
2026-05-06 02:48 22.10083 -84.79926 29752 ft 421 kts 39°
2026-05-06 02:49 22.14418 -84.75639 29771 ft 425 kts 39°
2026-05-06 02:49 22.18803 -84.71329 29938 ft 425 kts 38°
2026-05-06 02:50 22.23291 -84.67037 29555 ft 439 kts 38°
2026-05-06 02:50 22.25534 -84.64894 30155 ft 426 kts 39°
2026-05-06 02:50 22.27754 -84.62702 29774 ft 439 kts 40°
2026-05-06 02:51 22.32204 -84.58122 29756 ft 445 kts 40°
2026-05-06 02:51 22.36727 -84.53505 29772 ft 450 kts 40°
2026-05-06 02:52 22.41361 -84.48871 29782 ft 459 kts 39°
2026-05-06 02:52 22.46125 -84.44146 29785 ft 471 kts 39°
2026-05-06 02:53 22.51003 -84.39294 29783 ft 482 kts 39°
2026-05-06 02:53 22.56002 -84.34304 29786 ft 494 kts 40°
2026-05-06 02:54 22.61087 -84.29216 29780 ft 501 kts 40°
2026-05-06 02:54 22.66207 -84.24063 29759 ft 502 kts 41°
2026-05-06 02:55 22.70727 -84.18376 29772 ft 498 kts 52°
2026-05-06 02:55 22.74707 -84.12175 29781 ft 503 kts 51°
2026-05-06 02:56 22.78904 -84.06170 29771 ft 494 kts 47°